Location: Peterborough
(44.3091°N, 78.3197°W)
Time: 06:48:21
(UTC-04:00)

Vanguard 3 - Pass Details

Date: 29 March 2023
Orbit: 507 x 3246 km, 33.4° (Epoch: 04 June)

Event Time Altitude Azimuth Distance (km) Brightness Sun altitude
Rises 10:33:13 0° 278° (W) 6,958 11.5 35.4°
Reaches altitude 10° 10:41:14 10° 259° (W) 5,494 11.1 36.5°
Maximum altitude 10:48:20 15° 232° (SW) 4,548 11.0 37.5°
Drops below altitude 10° 10:54:13 10° 204° (SSW) 4,362 11.2 38.3°
Sets 10:59:16 0° 181° (S) 4,792 11.6 39.0°
